User: anonymous   Login
Location: Boca do Mato
(22.9085°S, 43.2930°W)
Time: 21:45:27
(UTC+00:00)
Language:

Meteor 2-19 Rocket - Orbit

View from above orbital plane
View from above orbital plane
View from above satellite
View from above satellite

Ground track
Ground track

The orbit data is extracted from the following two-line orbital elements,

1 20671U 90057B   20263.17240477 +.00000038 +00000-0 +20665-4 0  9996
2 20671 082.5479 146.2210 0014470 210.3737 149.6586 13.84625598527462
Epoch (UTC): 19 September 2020 04:08:15
Eccentricity: 0.0014470
inclination: 82.5479°
perigee height: 937 km
apogee height: 958 km
right ascension of ascending node: 146.2210°
argument of perigee: 210.3737°
revolutions per day: 13.84625598
mean anomaly at epoch: 149.6586°
orbit number at epoch: 52746

The dashed part of the orbit path shows where the satellite is in the earth's shadow,  

DLR